ONEWEB-0475, 51655

Orbit data source: Space-Track

ONEWEB-0475, 51655 is a payload satellite owned by One Web (NAA) (UK) in LEO that was launched on Thu, 10 Feb 2022 UTC via a SOYUZ-ST-B launch vehicle from the French Guiana (FRGUI). Payload-class satellites include a variety of spacecraft equipped with specific instruments for various scientific and technological missions. These include communications satellites like Starlink; space stations such as the ISS; scientific satellites like the Hubble; Earth observation satellites from companies like Planet Labs, Umbra, and HawkEye 360; GPS; miniature CubeSats for education and research; and military/defense satellites.

Loading next visibility...
Identifier
51655, 2022-012AK
Orbit
LEO
Country
Flag of UKUK
Related business
Manufacturer
One Web
Mission
Operational Commercial Communications
Bus & Motor
ARROW, Unknown motor
Mass
148 kg wet, ~140 kg dry
Launch date (UTC)
2022-02-10 (4 years ago)
Launch vehicle
SOYUZ-ST-B
Launch site
French Guiana (FRGUI)
Object type
Payload
Rocket body
Debris
Shape & HBR
Trap Box + 2 Pan, 6.7 m
Radar Cross Section
3.464 m², Large (>1 m²)

Expand to show TLE details & history
Last TLE update: 3 days ago

TLE from 3 days ago
0 ONEWEB-0475
1 51655U 22012AK  26170.57636905 -.00000012  00000-0 -63116-4 0  9992
2 51655  87.9132   5.3973 0001418  71.2312 288.8974 13.17648599214007
Epoch: 2026-06-19T13:49Z
TLE epoch observation values (Epoch: 2026-06-19T13:49:58.285Z)
Latitude
0.00002°
Longitude
-109.89891°
Altitude
1,196.266 km
Speed
7.256 km/s
True Right ascension
00h 21m 35s
True Declination
0° 00' 00"
Sunlit
Object was in daylight at epoch
Visualization orbit readout
Latitude
Unknown
Longitude
Unknown
Altitude
Unknown
Speed
Unknown
Apparent Right ascension
Unknown
Apparent Declination
Unknown
Sunlit
N/A
Visualization observer readout
Local Sidereal Time
21:26:02
Azimuth
Unknown
Elevation
Unknown
Doppler factor
Unknown
Orbital elements
Apogee altitude
1,191.897 km
Perigee altitude
1,189.75 km
Semi-major axis
7,568.961 km
Eccentricity
0.00014
Inclination
87.9132°
RAAN
5.3973°
Arg. of periapsis
71.2312°
True anomaly
288.88203°
Mean anomaly
288.8974°
Eccentric anomaly
288.88971°
Mean motion
3.29601 °/min
Orbital period
109.22 mins
BSTAR
-0.000063116
Loading maneuver chart data...
Computing Atmospheric mass density...
Loading historical data...
Loading historical data...
Loading historical data...
Loading historical data...
Loading historical data...
Loading historical data...
Loading historical data...

Documentation

Showing up to 5 results
|